Time,TemperatureF,DewpointF,PressureIn,WindDirection,WindDirectionDegrees,WindSpeedMPH,WindSpeedGustMPH,Humidity,HourlyPrecipIn,Conditions,Clouds,dailyrainin,SoftwareType,DateUTC
2013-03-10 00:02:00,46.0,32.0,30.21,North,360,0.0,0.0,59,0.00,,,0.00,,2013-03-10 05:02:00,
2013-03-10 00:11:00,46.0,32.0,30.21,North,360,0.0,0.0,59,0.00,,,0.00,,2013-03-10 05:11:00,
2013-03-10 00:22:00,46.0,32.0,30.21,North,360,0.0,0.0,58,0.00,,,0.00,,2013-03-10 05:22:00,
2013-03-10 00:32:00,45.0,32.0,30.20,NNW,348,0.0,0.0,59,0.00,,,0.00,,2013-03-10 05:32:00,
2013-03-10 00:42:00,45.0,32.0,30.20,NNW,348,0.0,2.0,59,0.00,,,0.00,,2013-03-10 05:42:00,
2013-03-10 00:52:00,45.0,32.0,30.20,NNW,348,0.0,2.0,59,0.00,,,0.00,,2013-03-10 05:52:00,
2013-03-10 01:01:00,45.0,32.0,30.20,North,360,0.0,1.0,61,0.00,,,0.00,,2013-03-10 06:01:00,
2013-03-10 01:11:00,45.0,32.0,30.20,North,360,0.0,1.0,61,0.00,,,0.00,,2013-03-10 06:11:00,
2013-03-10 01:22:00,45.0,32.0,30.20,North,360,0.0,1.0,60,0.00,,,0.00,,2013-03-10 06:22:00,
2013-03-10 01:32:00,45.0,32.0,30.20,North,360,0.0,0.0,60,0.00,,,0.00,,2013-03-10 06:32:00,
2013-03-10 01:42:00,45.0,32.0,30.20,North,360,0.0,0.0,60,0.00,,,0.00,,2013-03-10 06:42:00,
2013-03-10 01:52:00,45.0,32.0,30.19,North,360,0.0,0.0,61,0.00,,,0.00,,2013-03-10 06:52:00,
2013-03-10 03:02:00,45.0,33.0,30.19,North,360,0.0,0.0,63,0.00,,,0.00,,2013-03-10 07:02:00,
2013-03-10 03:11:00,45.0,33.0,30.19,North,360,0.0,0.0,63,0.00,,,0.00,,2013-03-10 07:11:00,
2013-03-10 03:21:00,45.0,33.0,30.18,North,360,0.0,0.0,63,0.00,,,0.00,,2013-03-10 07:21:00,
2013-03-10 03:32:00,45.0,33.0,30.17,North,360,0.0,2.0,63,0.00,,,0.00,,2013-03-10 07:32:00,
2013-03-10 03:42:00,45.0,34.0,30.16,North,360,0.0,1.0,64,0.00,,,0.00,,2013-03-10 07:42:00,
2013-03-10 03:52:00,45.0,34.0,30.16,North,360,0.0,1.0,64,0.00,,,0.00,,2013-03-10 07:52:00,
2013-03-10 04:01:00,45.0,33.0,30.15,NNW,337,0.0,2.0,63,0.00,,,0.00,,2013-03-10 08:01:00,
2013-03-10 04:11:00,45.0,33.0,30.15,NNW,337,0.0,2.0,63,0.00,,,0.00,,2013-03-10 08:11:00,
2013-03-10 04:21:00,46.0,34.0,30.15,NNE,24,0.0,4.0,62,0.00,,,0.00,,2013-03-10 08:21:00,
2013-03-10 04:31:00,46.0,32.0,30.14,North,360,0.0,2.0,59,0.00,,,0.00,,2013-03-10 08:31:00,
2013-03-10 04:42:00,46.0,32.0,30.14,North,360,0.0,2.0,59,0.00,,,0.00,,2013-03-10 08:42:00,
2013-03-10 04:52:00,47.0,33.0,30.14,NNW,345,0.0,1.0,59,0.00,,,0.00,,2013-03-10 08:52:00,
2013-03-10 05:02:00,47.0,33.0,30.14,NNW,345,0.0,1.0,59,0.00,,,0.00,,2013-03-10 09:02:00,
2013-03-10 05:11:00,47.0,33.0,30.14,NNW,345,0.0,1.0,59,0.00,,,0.00,,2013-03-10 09:11:00,
2013-03-10 05:21:00,46.0,32.0,30.14,NW,324,0.0,0.0,57,0.00,,,0.00,,2013-03-10 09:21:00,
2013-03-10 05:31:00,46.0,33.0,30.15,NW,324,0.0,0.0,60,0.00,,,0.00,,2013-03-10 09:31:00,
2013-03-10 05:42:00,46.0,33.0,30.15,NW,324,0.0,0.0,60,0.00,,,0.00,,2013-03-10 09:42:00,
2013-03-10 05:52:00,46.0,32.0,30.15,NW,324,0.0,0.0,59,0.00,,,0.00,,2013-03-10 09:52:00,
2013-03-10 06:01:00,46.0,33.0,30.16,NW,324,0.0,0.0,60,0.00,,,0.00,,2013-03-10 10:01:00,
2013-03-10 06:11:00,46.0,33.0,30.16,NW,324,0.0,0.0,60,0.00,,,0.00,,2013-03-10 10:11:00,
2013-03-10 06:21:00,46.0,31.0,30.16,NW,324,0.0,2.0,56,0.00,,,0.00,,2013-03-10 10:21:00,
2013-03-10 06:32:00,46.0,33.0,30.16,NW,324,0.0,0.0,60,0.00,,,0.00,,2013-03-10 10:32:00,
2013-03-10 06:42:00,46.0,32.0,30.15,NW,324,0.0,1.0,59,0.00,,,0.00,,2013-03-10 10:42:00,
2013-03-10 06:52:00,46.0,32.0,30.15,NW,324,0.0,1.0,59,0.00,,,0.00,,2013-03-10 10:52:00,
2013-03-10 07:01:00,46.0,32.0,30.15,NNW,340,1.0,4.0,57,0.00,,,0.00,,2013-03-10 11:01:00,
2013-03-10 07:12:00,47.0,33.0,30.16,South,175,0.0,4.0,57,0.00,,,0.00,,2013-03-10 11:12:00,
2013-03-10 07:21:00,47.0,33.0,30.16,South,175,0.0,4.0,57,0.00,,,0.00,,2013-03-10 11:21:00,
2013-03-10 07:32:00,48.0,32.0,30.16,NNE,19,2.0,5.0,54,0.00,,,0.00,,2013-03-10 11:32:00,
2013-03-10 07:42:00,48.0,32.0,30.16,NNE,19,2.0,5.0,54,0.00,,,0.00,,2013-03-10 11:42:00,
2013-03-10 07:52:00,48.0,32.0,30.16,NNW,333,0.0,6.0,53,0.00,,,0.00,,2013-03-10 11:52:00,
2013-03-10 08:01:00,48.0,32.0,30.17,NNW,333,0.0,1.0,53,0.00,,,0.00,,2013-03-10 12:01:00,
2013-03-10 08:11:00,48.0,32.0,30.17,NNW,333,0.0,1.0,53,0.00,,,0.00,,2013-03-10 12:11:00,
2013-03-10 08:21:00,47.0,31.0,30.18,NNW,333,0.0,0.0,54,0.00,,,0.00,,2013-03-10 12:21:00,
2013-03-10 08:31:00,47.0,33.0,30.19,NNW,333,0.0,0.0,57,0.00,,,0.00,,2013-03-10 12:31:00,
2013-03-10 08:42:00,47.0,33.0,30.19,NNW,333,0.0,0.0,57,0.00,,,0.00,,2013-03-10 12:42:00,
2013-03-10 08:52:00,47.0,31.0,30.19,NNW,333,0.0,0.0,54,0.00,,,0.00,,2013-03-10 12:52:00,
2013-03-10 09:01:00,47.0,33.0,30.18,NNW,333,0.0,1.0,58,0.00,,,0.00,,2013-03-10 13:01:00,
2013-03-10 09:11:00,47.0,33.0,30.18,NNW,333,0.0,1.0,58,0.00,,,0.00,,2013-03-10 13:11:00,
2013-03-10 09:21:00,47.0,33.0,30.19,NNW,333,0.0,0.0,58,0.00,,,0.00,,2013-03-10 13:21:00,
2013-03-10 09:31:00,47.0,33.0,30.18,NNW,333,0.0,0.0,57,0.00,,,0.00,,2013-03-10 13:31:00,
2013-03-10 09:42:00,47.0,33.0,30.18,NNW,333,0.0,0.0,57,0.00,,,0.00,,2013-03-10 13:42:00,
2013-03-10 09:52:00,48.0,32.0,30.18,NW,324,1.0,3.0,54,0.00,,,0.00,,2013-03-10 13:52:00,
2013-03-10 10:02:00,49.0,32.0,30.17,NNW,335,2.0,6.0,51,0.00,,,0.00,,2013-03-10 14:02:00,
2013-03-10 10:11:00,49.0,32.0,30.17,NNW,335,2.0,6.0,51,0.00,,,0.00,,2013-03-10 14:11:00,
2013-03-10 10:22:00,51.0,32.0,30.17,NNW,327,3.0,5.0,48,0.00,,,0.00,,2013-03-10 14:22:00,
2013-03-10 10:32:00,52.0,32.0,30.16,NE,35,5.0,11.0,46,0.00,,,0.00,,2013-03-10 14:32:00,
2013-03-10 10:42:00,52.0,32.0,30.16,NE,35,5.0,11.0,46,0.00,,,0.00,,2013-03-10 14:42:00,
2013-03-10 10:52:00,53.0,33.0,30.17,NNW,333,2.0,8.0,46,0.00,,,0.00,,2013-03-10 14:52:00,
2013-03-10 11:01:00,53.0,33.0,30.16,NW,325,4.0,8.0,46,0.00,,,0.00,,2013-03-10 15:01:00,
2013-03-10 11:11:00,53.0,33.0,30.16,NW,325,4.0,8.0,46,0.00,,,0.00,,2013-03-10 15:11:00,
2013-03-10 11:21:00,54.0,33.0,30.16,WNW,302,3.0,8.0,45,0.00,,,0.00,,2013-03-10 15:21:00,
2013-03-10 11:32:00,55.0,33.0,30.14,NNW,333,3.0,11.0,44,0.00,,,0.00,,2013-03-10 15:32:00,
2013-03-10 11:42:00,55.0,33.0,30.14,NNW,333,3.0,11.0,44,0.00,,,0.00,,2013-03-10 15:42:00,
2013-03-10 11:52:00,56.0,35.0,30.14,NNW,336,4.0,8.0,45,0.00,,,0.00,,2013-03-10 15:52:00,
2013-03-10 12:02:00,57.0,35.0,30.14,NNE,28,3.0,11.0,44,0.00,,,0.00,,2013-03-10 16:02:00,
2013-03-10 12:12:00,57.0,35.0,30.14,NNE,28,3.0,11.0,44,0.00,,,0.00,,2013-03-10 16:12:00,
2013-03-10 12:21:00,57.0,34.0,30.14,NW,325,2.0,11.0,42,0.00,,,0.00,,2013-03-10 16:21:00,
2013-03-10 12:32:00,57.0,35.0,30.14,NNW,330,3.0,10.0,44,0.00,,,0.00,,2013-03-10 16:32:00,
2013-03-10 12:41:00,57.0,35.0,30.14,NNW,330,3.0,10.0,44,0.00,,,0.00,,2013-03-10 16:41:00,
2013-03-10 12:52:00,58.0,34.0,30.14,NNW,335,2.0,7.0,41,0.00,,,0.00,,2013-03-10 16:52:00,
2013-03-10 13:01:00,59.0,35.0,30.13,WNW,293,3.0,14.0,41,0.00,,,0.00,,2013-03-10 17:01:00,
2013-03-10 13:11:00,59.0,35.0,30.13,WNW,293,3.0,14.0,41,0.00,,,0.00,,2013-03-10 17:11:00,
2013-03-10 13:21:00,60.0,35.0,30.11,NNW,328,3.0,13.0,39,0.00,,,0.00,,2013-03-10 17:21:00,
2013-03-10 13:31:00,61.0,35.0,30.11,NNW,340,4.0,11.0,37,0.00,,,0.00,,2013-03-10 17:31:00,
2013-03-10 13:41:00,61.0,35.0,30.11,NNW,340,4.0,11.0,37,0.00,,,0.00,,2013-03-10 17:41:00,
2013-03-10 13:51:00,61.0,33.0,30.11,NNW,338,3.0,8.0,35,0.00,,,0.00,,2013-03-10 17:51:00,
2013-03-10 14:01:00,63.0,35.0,30.10,NNW,338,3.0,8.0,35,0.00,,,0.00,,2013-03-10 18:01:00,
2013-03-10 14:11:00,63.0,35.0,30.10,NNW,338,3.0,8.0,35,0.00,,,0.00,,2013-03-10 18:11:00,
2013-03-10 14:22:00,63.0,34.0,30.10,NW,326,3.0,7.0,34,0.00,,,0.00,,2013-03-10 18:22:00,
2013-03-10 14:32:00,64.0,32.0,30.09,NW,310,2.0,5.0,30,0.00,,,0.00,,2013-03-10 18:32:00,
2013-03-10 14:42:00,64.0,32.0,30.09,NW,310,2.0,5.0,30,0.00,,,0.00,,2013-03-10 18:42:00,
2013-03-10 14:52:00,64.0,32.0,30.10,NW,306,0.0,3.0,30,0.00,,,0.00,,2013-03-10 18:52:00,
2013-03-10 15:01:00,64.0,34.0,30.08,NNW,341,0.0,4.0,32,0.00,,,0.00,,2013-03-10 19:01:00,
2013-03-10 15:11:00,64.0,34.0,30.08,NNW,341,0.0,4.0,32,0.00,,,0.00,,2013-03-10 19:11:00,
2013-03-10 15:21:00,63.0,34.0,30.08,NNW,346,0.0,3.0,34,0.00,,,0.00,,2013-03-10 19:21:00,
2013-03-10 15:32:00,63.0,34.0,30.07,NNW,334,1.0,5.0,34,0.00,,,0.00,,2013-03-10 19:32:00,
2013-03-10 15:42:00,63.0,34.0,30.07,NNW,334,1.0,5.0,34,0.00,,,0.00,,2013-03-10 19:42:00,
2013-03-10 15:53:00,63.0,36.0,30.07,NNW,329,1.0,5.0,36,0.00,,,0.00,,2013-03-10 19:53:00,
2013-03-10 16:02:00,63.0,35.0,30.07,NNW,342,2.0,5.0,35,0.00,,,0.00,,2013-03-10 20:02:00,
2013-03-10 16:12:00,63.0,35.0,30.07,NNW,342,2.0,5.0,35,0.00,,,0.00,,2013-03-10 20:12:00,
2013-03-10 16:22:00,64.0,36.0,30.06,NNW,338,1.0,6.0,35,0.00,,,0.00,,2013-03-10 20:22:00,
2013-03-10 16:32:00,64.0,34.0,30.06,NNW,333,2.0,7.0,32,0.00,,,0.00,,2013-03-10 20:32:00,
2013-03-10 16:43:00,64.0,34.0,30.06,NNW,333,2.0,7.0,32,0.00,,,0.00,,2013-03-10 20:43:00,
2013-03-10 16:53:00,64.0,34.0,30.06,NNW,333,2.0,5.0,33,0.00,,,0.00,,2013-03-10 20:53:00,
2013-03-10 17:02:00,64.0,35.0,30.05,NNW,344,1.0,4.0,34,0.00,,,0.00,,2013-03-10 21:02:00,
2013-03-10 17:12:00,64.0,35.0,30.05,NNW,344,1.0,4.0,34,0.00,,,0.00,,2013-03-10 21:12:00,
2013-03-10 17:23:00,63.0,36.0,30.06,NNW,338,1.0,3.0,36,0.00,,,0.00,,2013-03-10 21:23:00,
2013-03-10 17:32:00,62.0,34.0,30.06,NW,318,2.0,8.0,35,0.00,,,0.00,,2013-03-10 21:32:00,
2013-03-10 17:42:00,62.0,34.0,30.06,NW,318,2.0,8.0,35,0.00,,,0.00,,2013-03-10 21:42:00,
2013-03-10 17:53:00,62.0,36.0,30.06,North,355,1.0,6.0,38,0.00,,,0.00,,2013-03-10 21:53:00,
2013-03-10 18:02:00,61.0,36.0,30.06,NNW,336,2.0,6.0,39,0.00,,,0.00,,2013-03-10 22:02:00,
2013-03-10 18:12:00,61.0,36.0,30.06,NNW,336,2.0,6.0,39,0.00,,,0.00,,2013-03-10 22:12:00,
2013-03-10 18:22:00,60.0,36.0,30.05,NNW,340,1.0,6.0,41,0.00,,,0.00,,2013-03-10 22:22:00,
2013-03-10 18:32:00,60.0,36.0,30.06,NW,311,1.0,6.0,41,0.00,,,0.00,,2013-03-10 22:32:00,
2013-03-10 18:43:00,60.0,36.0,30.06,NW,311,1.0,6.0,41,0.00,,,0.00,,2013-03-10 22:43:00,
2013-03-10 18:53:00,60.0,37.0,30.06,NW,318,1.0,4.0,43,0.00,,,0.00,,2013-03-10 22:53:00,
2013-03-10 19:03:00,59.0,37.0,30.05,NNW,335,1.0,5.0,43,0.00,,,0.00,,2013-03-10 23:03:00,
2013-03-10 19:12:00,58.0,36.0,30.05,NW,312,1.0,3.0,44,0.00,,,0.00,,2013-03-10 23:12:00,
2013-03-10 19:23:00,58.0,36.0,30.05,NW,312,1.0,3.0,44,0.00,,,0.00,,2013-03-10 23:23:00,
2013-03-10 19:33:00,58.0,38.0,30.06,NW,320,0.0,6.0,47,0.00,,,0.00,,2013-03-10 23:33:00,
2013-03-10 19:42:00,58.0,38.0,30.06,NW,320,0.0,6.0,47,0.00,,,0.00,,2013-03-10 23:42:00,
2013-03-10 19:52:00,57.0,38.0,30.05,NW,323,0.0,4.0,48,0.00,,,0.00,,2013-03-10 23:52:00,
2013-03-10 20:02:00,57.0,38.0,30.04,NNW,340,0.0,7.0,48,0.00,,,0.00,,2013-03-11 00:02:00,
2013-03-10 20:13:00,57.0,38.0,30.04,NNW,340,0.0,7.0,48,0.00,,,0.00,,2013-03-11 00:13:00,
2013-03-10 20:23:00,56.0,38.0,30.05,NNW,340,0.0,0.0,50,0.00,,,0.00,,2013-03-11 00:23:00,
2013-03-10 20:33:00,55.0,38.0,30.04,NNW,339,0.0,2.0,52,0.00,,,0.00,,2013-03-11 00:33:00,
2013-03-10 20:43:00,55.0,38.0,30.04,NNW,339,0.0,2.0,52,0.00,,,0.00,,2013-03-11 00:43:00,
2013-03-10 20:53:00,54.0,37.0,30.04,North,360,0.0,2.0,52,0.00,,,0.00,,2013-03-11 00:53:00,
2013-03-10 21:03:00,54.0,37.0,30.04,NNW,339,3.0,10.0,52,0.00,,,0.00,,2013-03-11 01:03:00,
2013-03-10 21:13:00,54.0,37.0,30.04,NNW,339,3.0,10.0,52,0.00,,,0.00,,2013-03-11 01:13:00,
2013-03-10 21:23:00,54.0,36.0,30.03,NNW,333,2.0,8.0,50,0.00,,,0.00,,2013-03-11 01:23:00,
2013-03-10 21:32:00,54.0,36.0,30.03,NW,317,0.0,4.0,51,0.00,,,0.00,,2013-03-11 01:32:00,
2013-03-10 21:43:00,54.0,36.0,30.03,NW,317,0.0,4.0,51,0.00,,,0.00,,2013-03-11 01:43:00,
2013-03-10 21:53:00,54.0,37.0,30.04,NNW,331,0.0,4.0,53,0.00,,,0.00,,2013-03-11 01:53:00,
2013-03-10 22:02:00,53.0,37.0,30.03,NNW,331,0.0,1.0,55,0.00,,,0.00,,2013-03-11 02:02:00,
2013-03-10 22:12:00,53.0,37.0,30.03,NNW,331,0.0,1.0,55,0.00,,,0.00,,2013-03-11 02:12:00,
2013-03-10 22:23:00,52.0,37.0,30.04,NW,317,0.0,4.0,56,0.00,,,0.00,,2013-03-11 02:23:00,
2013-03-10 22:32:00,52.0,38.0,30.04,NW,326,0.0,2.0,58,0.00,,,0.00,,2013-03-11 02:32:00,
2013-03-10 22:42:00,52.0,38.0,30.04,NW,326,0.0,2.0,58,0.00,,,0.00,,2013-03-11 02:42:00,
2013-03-10 22:53:00,51.0,37.0,30.05,NNW,344,0.0,2.0,59,0.00,,,0.00,,2013-03-11 02:53:00,
2013-03-10 23:02:00,51.0,37.0,30.05,NW,323,0.0,3.0,59,0.00,,,0.00,,2013-03-11 03:02:00,
2013-03-10 23:12:00,51.0,37.0,30.05,NW,323,0.0,3.0,59,0.00,,,0.00,,2013-03-11 03:12:00,
2013-03-10 23:22:00,53.0,39.0,30.04,NNW,340,0.0,5.0,60,0.00,,,0.00,,2013-03-11 03:22:00,
2013-03-10 23:32:00,53.0,39.0,30.04,North,350,1.0,4.0,59,0.00,,,0.00,,2013-03-11 03:32:00,
2013-03-10 23:42:00,53.0,39.0,30.04,North,350,1.0,4.0,59,0.00,,,0.00,,2013-03-11 03:42:00,
2013-03-10 23:53:00,53.0,39.0,30.04,NNW,330,1.0,5.0,60,0.00,,,0.00,,2013-03-11 03:53:00,